STARLINK-33786, 63514

Orbit data source: Space-Track

STARLINK-33786, 63514 is a payload satellite owned by SpaceX/Seattle (US) in LEO that was launched on Mon, 07 Apr 2025 UTC via an FALCON 9 launch vehicle from the Air Force Western Test Range (AFWTR). Payload-class satellites include a variety of spacecraft equipped with specific instruments for various scientific and technological missions. These include communications satellites like Starlink; space stations such as the ISS; scientific satellites like the Hubble; Earth observation satellites from companies like Planet Labs, Umbra, and HawkEye 360; GPS; miniature CubeSats for education and research; and military/defense satellites.

Loading next visibility...
Identifier
63514, 2025-071X
Orbit
LEO
Country
Flag of USUS
Related business
Manufacturer
SpaceX/Seattle
Mission
Operational Commercial Communications
Bus & Motor
STARLINK V2MO, Unknown motor
Mass
575 kg wet, ~530 kg dry
Launch date (UTC)
2025-04-07 (1 year ago)
Launch vehicle
FALCON 9
Launch site
Air Force Western Test Range (AFWTR)
Object type
Payload
Rocket body
Debris
Shape & HBR
Box + 1 Pan, 17.7 m
Radar Cross Section
41.120 m², Large (>1 m²)

Expand to show TLE details & history
Last TLE update: 2 days ago

TLE from 2 days ago
0 STARLINK-33786
1 63514U 25071X   26261.77966246  .00023990  00000-0  71836-3 0  9999
2 63514  53.1585 321.5263 0001037  94.2001 265.9120 15.34423486 81977
Epoch: 2026-09-18T18:42Z
TLE epoch observation values (Epoch: 2026-09-18T18:42:42.836Z)
Latitude
-0.00003°
Longitude
43.15014°
Altitude
463.585 km
Speed
7.636 km/s
True Right ascension
21h 26m 06s
True Declination
0° 00' 00"
Sunlit
Object was in full shadow at epoch
Visualization orbit readout
Latitude
Unknown
Longitude
Unknown
Altitude
Unknown
Speed
Unknown
Apparent Right ascension
Unknown
Apparent Declination
Unknown
Sunlit
N/A
Visualization observer readout
Local Sidereal Time
02:41:18
Azimuth
Unknown
Elevation
Unknown
Doppler factor
Unknown
Orbital elements
Apogee altitude
463.6 km
Perigee altitude
462.181 km
Semi-major axis
6,841.028 km
Eccentricity
0.0001
Inclination
53.1585°
RAAN
321.5263°
Arg. of periapsis
94.2001°
True anomaly
265.90015°
Mean anomaly
265.912°
Eccentric anomaly
265.90607°
Mean motion
3.83585 °/min
Orbital period
93.85 mins
BSTAR
0.00071836
Loading maneuver chart data...
Computing Atmospheric mass density...
Loading historical data...
Loading historical data...
Loading historical data...
Loading historical data...
Loading historical data...
Loading historical data...
Loading historical data...

Documentation

Showing up to 5 results
|